Regional Weather Roundup
Issued by NWS Goodland, KS

Home | Current Version | Previous Version | Text Only | Print | Product List | Glossary Off
Versions: 1 2 3 4 5 6 7 8 9 10 11 12 13 14 15 16 17 18 19 20 21 22 23 24 25 26 27 28 29 30 31 32 33 34 35 36 37 38 39 40 41 42 43 44 45 46 47 48 49 50

000
ASUS43 KGLD 240059
RWRGLD

GOODLAND FORECAST AREA HOURLY WEATHER ROUNDUP
NATIONAL WEATHER SERVICE GOODLAND KS
700 PM MDT MON OCT 23 2017

...OFFICIAL OBSERVATIONS...

CITY           SKY/WX    TMP DP  RH WIND       PRES   REMARKS
GOODLAND KS    MOCLDY    51  18  27 N13       30.38R
HILL CITY KS   CLEAR     51  20  29 NW9       30.30R
IMPERIAL NEB   CLEAR     51  17  26 N18       30.37R
MCCOOK NEB     CLEAR     52  19  27 N17       30.32R
AKRON CO       PTCLDY    47  18  31 N14       30.43R
BURLINGTON CO  CLEAR     45  21  38 NW8       30.41R
LIMON CO       CLEAR     33  20  58 N8        30.47R
$$

...UNOFFICIAL OBSERVATIONS...

CITY           SKY/WX    TMP DP  RH WIND       PRES   REMARKS
LENORA KS        N/A     53  32  45 NW12        N/A
NORTON KS      CLEAR     54  12  19 NW10      30.28R
SHARON SPRINGS   N/A     49  21  33 N6          N/A
TRENTON NEB      N/A     52  32  46 NW10        N/A
KIT CARSON CO    N/A     47  21  35 CALM        N/A
YUMA CO        FAIR      46  19  34 N10       30.40R
$$



USA.gov is the U.S. government's official web portal to all federal, state and local government web resources and services.